Theta_e
294 294 295 295 297 298 299 300 298 296 297 302 300 305 306 310 312 316 316 309 311 312 313 314 315 317 318 319 320 321 323 323 323 323 324 325 325 325
292 291 292 293 294 294 293 293 295 293 291 295 295 298 300 302 302 303 308 304 307 308 310 311 312 313 315 316 317 319 320 321 321 322 322 323 324 324
290 290 290 291 290 290 291 291 290 290 288 288 291 293 292 293 295 298 300 302 308 307 308 308 309 310 311 312 313 315 316 317 318 319 320 321 322 322
287 288 287 288 287 288 288 287 288 289 286 284 287 287 289 291 292 293 296 297 299 302 301 303 308 309 308 309 310 310 311 312 313 314 315 317 319 320
286 284 284 283 283 283 284 284 284 285 285 284 283 286 287 288 288 290 290 292 295 295 296 297 300 304 306 308 308 307 306 307 308 309 310 311 314 316
284 283 282 282 281 282 282 281 282 281 281 281 281 281 282 284 286 284 283 286 287 290 292 293 296 298 302 301 303 303 304 305 306 306 306 307 308 310
281 281 281 281 282 282 281 281 280 280 279 279 278 279 279 280 280 281 280 281 283 286 287 289 290 290 291 294 295 297 302 304 304 304 304 304 305 306
279 279 280 280 280 281 282 282 281 279 279 278 278 277 279 280 279 278 279 279 278 284 284 283 287 287 289 290 293 295 297 298 303 304 303 304 304 304
278 278 278 278 278 279 280 280 280 281 281 278 277 276 276 277 278 277 278 278 279 283 284 282 286 286 288 291 294 295 296 297 299 302 304 303 302 302
276 277 276 276 276 278 277 276 277 278 278 278 277 277 277 278 278 278 277 277 279 280 284 281 285 285 287 289 293 295 295 297 297 299 302 303 302 301
275 276 275 274 277 278 275 274 274 275 278 279 278 277 278 278 278 275 272 271 270 273 276 276 280 281 282 284 288 292 294 295 296 297 299 301 302 301
274 274 275 275 277 277 274 273 271 272 273 272 272 272 273 273 275 273 272 269 269 269 277 273 274 276 274 279 283 287 289 292 294 296 298 300 301 301
272 272 273 275 275 275 275 271 271 272 269 269 268 268 269 270 270 271 271 270 269 269 273 274 272 272 273 274 277 283 288 290 292 294 297 298 300 301
271 271 273 274 273 272 271 272 272 269 266 264 264 264 265 265 266 267 269 270 271 271 272 272 270 271 271 271 271 277 282 288 291 291 293 297 299 299
272 273 272 271 270 268 268 269 266 264 262 261 261 262 263 264 265 265 266 267 268 269 271 271 272 272 271 269 270 272 275 279 287 289 291 293 295 296
271 266 267 266 266 265 263 264 263 262 261 260 260 261 262 261 261 262 261 262 262 262 267 270 271 271 268 269 270 270 273 274 281 287 291 293 294 296
261 259 259 260 260 260 260 260 260 259 258 259 258 258 258 259 259 260 260 259 258 259 261 264 268 269 270 270 268 271 274 275 279 286 289 290 293 294
252 251 256 257 257 257 256 256 257 257 257 257 256 256 256 256 256 257 258 258 257 258 259 261 264 265 266 268 273 271 270 272 275 276 284 289 289 293
248 248 252 255 255 255 255 255 254 256 256 255 255 255 255 255 254 255 256 257 256 257 259 260 263 263 261 260 266 272 269 270 271 273 277 287 288 291
247 247 248 250 252 253 253 253 253 253 253 253 253 253 252 252 252 253 254 254 255 255 257 260 262 263 262 261 263 266 274 272 273 276 278 287 289 289
247 248 249 249 251 251 252 251 251 251 252 251 251 251 251 251 251 252 253 253 254 255 255 260 263 266 266 266 264 264 268 274 276 278 284 284 285 282
248 248 249 248 247 248 249 249 250 250 249 250 250 250 251 251 251 251 252 252 253 255 257 262 264 264 264 263 262 264 266 270 274 283 285 285 282 278
249 248 249 248 248 247 246 247 248 249 249 249 249 249 250 249 250 251 251 252 253 255 259 260 261 263 262 263 263 264 265 267 276 278 280 281 284 284
Wind_Speed
7 8 6 6 6 5 7 6 5 6 7 3 5 10 11 12 12 13 10 17 17 18 21 24 26 28 28 28 30 30 31 31 31 32 34 34 36 39
6 8 7 6 6 7 5 5 3 4 5 6 8 11 12 11 14 16 17 18 16 19 22 22 24 26 28 28 29 29 29 30 30 32 32 34 36 37
6 7 8 8 6 6 5 5 5 4 7 8 8 10 13 13 13 13 13 14 14 17 17 20 21 25 26 27 28 29 29 29 30 31 33 30 34 33
7 8 9 8 8 9 6 7 5 6 7 14 11 9 11 12 13 15 12 11 14 16 27 27 25 25 24 26 28 29 28 29 29 30 30 32 31 31
8 8 8 8 8 7 5 6 5 7 7 9 10 9 9 10 13 11 13 13 12 18 26 28 28 27 25 25 26 27 27 28 28 29 30 30 31 31
8 8 8 9 9 8 8 8 8 7 7 7 8 9 9 11 9 14 15 11 14 13 16 20 23 23 20 23 26 26 26 27 28 29 30 29 32 33
7 7 8 8 15 13 8 9 10 8 7 8 8 8 9 11 13 11 13 15 15 16 11 9 12 14 14 19 19 24 25 27 26 29 30 31 33 34
7 7 7 7 10 15 17 18 13 9 9 9 8 11 11 12 11 13 14 15 15 4 15 18 13 15 13 13 23 29 31 34 33 30 30 31 32 32
8 8 9 7 9 10 15 18 14 16 14 10 10 11 14 13 15 15 14 15 16 16 16 21 12 16 13 15 26 28 31 32 35 34 33 32 32 33
8 8 9 10 11 14 13 12 11 11 11 9 11 12 13 14 14 14 17 18 15 13 14 21 12 17 15 15 26 28 30 31 34 35 34 33 34 33
8 8 8 10 16 22 14 13 11 11 12 20 20 22 22 23 19 12 11 13 16 14 13 13 10 18 17 18 16 29 31 33 35 36 37 35 36 34
6 8 11 14 20 21 12 11 11 11 14 12 12 14 15 13 19 11 10 13 13 13 3 11 17 14 14 11 14 14 14 27 32 36 32 32 34 17
7 7 7 17 21 20 18 10 13 15 14 11 10 9 10 10 10 11 12 12 14 16 16 15 15 15 12 21 16 15 17 17 16 18 27 32 33 27
8 7 7 19 19 18 12 19 21 15 9 9 9 9 9 10 10 12 14 13 13 20 19 18 16 15 17 20 21 14 17 17 15 16 15 22 31 31
7 11 16 18 16 11 16 17 14 8 8 8 9 9 9 11 14 13 13 15 16 18 15 18 15 15 15 18 21 20 21 17 17 19 18 16 16 15
8 6 11 12 11 11 8 10 8 8 8 8 9 10 10 9 9 11 13 13 14 14 14 16 17 15 17 17 18 20 18 16 17 18 18 18 18 17
5 4 5 5 6 6 5 5 6 7 7 7 9 10 10 10 10 11 12 13 13 16 16 12 17 18 15 21 19 17 17 16 18 19 18 17 17 17
5 2 3 5 6 6 6 6 6 7 7 8 8 9 10 11 11 11 11 11 13 14 16 16 17 20 15 16 17 13 18 16 16 19 22 16 15 14
2 2 3 4 5 6 6 6 7 7 8 7 8 9 10 10 13 11 11 12 13 14 14 15 14 15 20 21 25 12 17 20 20 19 16 16 16 15
1 3 4 4 5 5 6 6 7 7 7 7 8 9 9 9 11 11 11 13 13 14 14 13 13 14 16 20 25 27 36 19 18 21 18 14 14 12
3 4 4 4 5 4 5 5 6 7 8 8 7 8 8 9 10 11 12 16 17 14 15 14 15 25 16 17 17 20 20 36 29 22 16 14 12 5
4 5 5 5 5 5 5 5 6 7 7 7 8 8 8 8 10 12 11 13 13 13 16 15 16 15 15 15 19 25 22 22 31 31 29 25 7 5
5 5 5 5 5 5 4 5 6 8 8 8 8 8 8 9 9 10 12 12 14 14 16 16 15 14 15 14 20 19 28 26 18 19 11 17 12 5
Wind_Direction
25 19 24 14 14 7 19 13 350 319 317 6 345 10 337 335 324 312 299 284 267 261 263 261 254 256 252 255 255 252 253 253 255 256 252 246 244 244
25 21 21 16 18 28 10 1 350 338 295 17 326 332 334 334 336 328 325 301 275 270 266 261 263 260 256 257 255 256 259 256 254 251 251 251 248 247
12 19 22 19 23 13 359 16 1 329 313 314 328 329 328 325 323 324 324 324 319 312 283 271 264 261 258 258 258 260 257 255 256 256 253 248 248 249
10 21 23 17 18 18 359 1 330 349 321 308 320 324 322 321 317 320 323 320 319 331 326 325 310 284 268 261 260 257 254 253 254 255 255 252 250 244
26 23 20 14 25 4 6 10 354 338 322 311 314 321 321 320 323 318 316 319 318 320 316 306 308 304 294 281 268 264 259 264 259 256 256 253 249 248
27 19 14 30 12 1 12 0 350 334 325 319 316 320 329 334 328 328 324 323 315 307 300 298 293 303 319 321 306 285 268 265 263 260 256 249 247 247
24 15 5 33 6 10 358 353 345 333 327 328 324 326 332 337 338 331 314 318 317 302 313 322 322 305 300 298 298 301 291 273 264 260 257 253 249 249
10 7 356 14 358 355 352 348 342 333 329 327 327 327 326 327 324 320 317 319 315 271 327 305 309 299 297 292 290 291 289 291 282 265 261 258 254 252
5 359 356 0 354 344 346 344 336 335 337 329 328 327 320 322 317 314 311 304 295 300 299 291 295 287 291 286 290 288 289 289 286 279 265 262 257 253
357 355 354 354 344 345 346 336 334 330 331 331 327 326 317 318 317 311 309 300 295 301 307 293 303 287 290 284 282 282 292 290 287 283 272 262 256 255
354 345 359 349 339 345 342 333 331 324 326 324 328 321 319 320 317 322 319 320 312 311 301 285 311 315 303 289 284 285 281 277 280 279 272 263 257 256
345 340 348 342 344 343 339 339 325 331 329 333 328 326 323 315 326 323 318 314 314 312 51 340 312 323 306 307 300 303 296 286 283 277 282 276 267 257
339 340 337 333 342 338 345 338 332 335 332 331 326 323 320 325 326 321 317 307 299 279 298 313 303 299 280 303 300 299 286 282 276 274 272 268 267 251
340 321 326 341 337 339 349 340 340 344 337 331 327 323 325 323 321 311 303 294 287 285 298 295 287 294 299 295 293 302 296 287 280 274 273 268 262 257
324 330 343 339 341 348 347 346 349 341 334 324 318 317 319 315 315 309 306 301 295 292 292 293 284 295 291 288 291 297 298 292 283 275 270 260 256 251
356 5 349 345 348 348 351 347 339 334 325 315 316 314 314 316 318 316 315 318 310 304 300 295 296 297 297 284 285 290 288 280 287 269 269 260 249 239
62 29 350 344 343 341 333 325 320 320 318 321 317 314 317 319 319 323 313 311 309 312 312 313 301 300 288 286 290 285 289 301 300 284 269 260 242 239
50 4 325 330 320 317 316 314 314 318 318 317 310 310 315 318 318 316 311 312 309 310 308 317 316 317 313 293 271 317 297 295 296 297 295 265 253 238
71 304 290 296 298 302 301 301 303 304 307 304 306 307 310 311 315 311 310 309 306 308 306 309 314 319 318 314 307 301 311 298 296 290 278 271 260 253
199 245 257 259 271 283 287 292 292 297 300 302 300 300 301 304 307 305 306 307 305 307 308 300 315 315 310 305 301 304 304 295 293 292 276 267 264 276
259 260 246 254 266 265 276 280 282 287 289 293 289 287 291 298 297 299 300 303 302 302 305 307 312 309 300 298 296 302 304 305 298 290 288 281 262 239
238 244 257 253 251 254 263 264 278 282 281 281 283 284 287 288 293 297 297 301 300 298 295 305 315 313 314 313 307 309 311 312 310 303 290 270 258 236
256 243 256 251 247 241 245 259 264 274 273 274 277 281 285 288 290 289 291 292 293 295 302 314 316 318 316 315 312 313 315 318 318 321 322 328 306 275